| time (UTC) | temp F | wind direction | speed MPH | gust MPH | rain 1hr in | rain 24hr in | rain mn in | humidity % | barometer mb |
| 20260507234513 | 57 | 162 | 0.0 | 0.0 | 0.00 | 0.01 | 0.01 | 35 | 1009.3 |
| 20260507234009 | 57 | 150 | 1.0 | 2.0 | 0.00 | 0.01 | 0.01 | 35 | 1009.1 |
| 20260507233506 | 57 | 154 | 0.0 | 1.0 | 0.00 | 0.01 | 0.01 | 34 | 1009.1 |
| 20260507233005 | 58 | 160 | 0.0 | 0.0 | 0.00 | 0.01 | 0.01 | 35 | 1009.2 |
| 20260507232501 | 58 | 151 | 0.0 | 2.0 | 0.00 | 0.01 | 0.01 | 35 | 1009.2 |
| 20260507231958 | 58 | 155 | 0.0 | 2.0 | 0.00 | 0.01 | 0.01 | 34 | 1009.0 |
| 20260507231454 | 59 | 146 | 0.0 | 2.0 | 0.00 | 0.01 | 0.01 | 34 | 1009.0 |
| 20260507230952 | 59 | 154 | 2.0 | 2.0 | 0.00 | 0.01 | 0.01 | 34 | 1008.9 |
| 20260507230449 | 59 | 173 | 0.0 | 1.0 | 0.00 | 0.01 | 0.01 | 34 | 1008.8 |
| 20260507225944 | 59 | 124 | 0.0 | 2.0 | 0.00 | 0.01 | 0.01 | 34 | 1008.7 |
| 20260507225440 | 59 | 145 | 0.0 | 2.0 | 0.00 | 0.01 | 0.01 | 34 | 1008.8 |
| 20260507224936 | 59 | 145 | 0.0 | 2.0 | 0.00 | 0.01 | 0.01 | 33 | 1008.7 |
| 20260507224432 | 59 | 152 | 0.0 | 3.0 | 0.00 | 0.01 | 0.01 | 34 | 1008.6 |
| 20260507223929 | 60 | 165 | 0.0 | 2.0 | 0.00 | 0.01 | 0.01 | 34 | 1008.6 |
| 20260507223425 | 60 | 153 | 0.0 | 2.0 | 0.00 | 0.01 | 0.01 | 34 | 1008.6 |
| 20260507222922 | 60 | 119 | 1.0 | 7.0 | 0.00 | 0.01 | 0.01 | 33 | 1008.5 |
| 20260507222419 | 60 | 166 | 2.0 | 3.0 | 0.00 | 0.01 | 0.01 | 33 | 1008.6 |
| 20260507221916 | 60 | 139 | 1.0 | 3.0 | 0.00 | 0.01 | 0.01 | 33 | 1008.4 |
| 20260507221412 | 61 | 131 | 1.0 | 4.0 | 0.00 | 0.01 | 0.01 | 32 | 1008.4 |
| 20260507220908 | 61 | 148 | 1.0 | 4.0 | 0.00 | 0.01 | 0.01 | 32 | 1008.3 |
| 20260507220407 | 61 | 197 | 2.0 | 3.0 | 0.00 | 0.01 | 0.01 | 33 | 1008.2 |
| 20260507215903 | 61 | 231 | 3.0 | 6.0 | 0.00 | 0.01 | 0.01 | 31 | 1008.3 |
| 20260507215359 | 62 | 195 | 2.0 | 6.0 | 0.00 | 0.01 | 0.01 | 31 | 1008.2 |
| 20260507214857 | 62 | 111 | 1.0 | 2.0 | 0.00 | 0.01 | 0.01 | 33 | 1008.4 |
| 20260507214354 | 61 | 169 | 1.0 | 4.0 | 0.00 | 0.01 | 0.01 | 31 | 1008.3 |
| 20260507213850 | 61 | 187 | 1.0 | 2.0 | 0.00 | 0.01 | 0.01 | 32 | 1008.2 |
| 20260507213346 | 62 | 187 | 2.0 | 3.0 | 0.00 | 0.01 | 0.01 | 32 | 1008.2 |
| 20260507212843 | 62 | 234 | 4.0 | 4.0 | 0.00 | 0.01 | 0.01 | 32 | 1008.1 |
| 20260507212339 | 62 | 163 | 1.0 | 6.0 | 0.00 | 0.01 | 0.01 | 31 | 1008.2 |
| 20260507211836 | 63 | 228 | 4.0 | 6.0 | 0.00 | 0.01 | 0.01 | 32 | 1008.2 |
| 20260507211333 | 62 | 89 | 0.0 | 2.0 | 0.00 | 0.01 | 0.01 | 31 | 1008.2 |
| 20260507210829 | 62 | 83 | 2.0 | 3.0 | 0.00 | 0.01 | 0.01 | 30 | 1008.1 |
| 20260507210327 | 62 | 145 | 1.0 | 3.0 | 0.00 | 0.01 | 0.01 | 34 | 1008.2 |
| 20260507205823 | 63 | 159 | 1.0 | 7.0 | 0.00 | 0.01 | 0.01 | 31 | 1008.1 |
| 20260507205320 | 63 | 120 | 2.0 | 2.0 | 0.00 | 0.01 | 0.01 | 32 | 1008.0 |
| 20260507204816 | 63 | 216 | 2.0 | 6.0 | 0.00 | 0.01 | 0.01 | 30 | 1007.7 |
| 20260507204314 | 62 | 105 | 1.0 | 2.0 | 0.00 | 0.01 | 0.01 | 34 | 1008.0 |
| 20260507203812 | 62 | 104 | 2.0 | 4.0 | 0.00 | 0.01 | 0.01 | 33 | 1008.0 |
| 20260507203309 | 61 | 81 | 1.0 | 2.0 | 0.00 | 0.01 | 0.01 | 34 | 1008.0 |
| 20260507202805 | 62 | 129 | 1.0 | 2.0 | 0.00 | 0.01 | 0.01 | 35 | 1007.9 |
| 20260507202301 | 63 | 99 | 1.0 | 2.0 | 0.00 | 0.01 | 0.01 | 34 | 1008.0 |
| 20260507201756 | 63 | 48 | 1.0 | 2.0 | 0.00 | 0.01 | 0.01 | 34 | 1007.9 |
| 20260507201253 | 62 | 136 | 0.0 | 2.0 | 0.00 | 0.01 | 0.01 | 36 | 1008.0 |
| 20260507200749 | 62 | 107 | 2.0 | 6.0 | 0.00 | 0.01 | 0.01 | 35 | 1008.1 |
| 20260507200245 | 63 | 129 | 2.0 | 2.0 | 0.00 | 0.01 | 0.01 | 34 | 1008.0 |
| 20260507195741 | 63 | 157 | 1.0 | 2.0 | 0.00 | 0.01 | 0.01 | 33 | 1008.2 |
| 20260507195239 | 63 | 101 | 0.0 | 2.0 | 0.00 | 0.01 | 0.01 | 34 | 1008.1 |
| 20260507194736 | 64 | 228 | 1.0 | 2.0 | 0.00 | 0.01 | 0.01 | 34 | 1008.2 |
| 20260507194232 | 64 | 108 | 3.0 | 4.0 | 0.00 | 0.01 | 0.01 | 32 | 1008.1 |
| 20260507193729 | 64 | 181 | 1.0 | 8.0 | 0.00 | 0.01 | 0.01 | 32 | 1008.2 |
| 20260507193226 | 63 | 99 | 1.0 | 2.0 | 0.00 | 0.01 | 0.01 | 34 | 1008.2 |
| 20260507192722 | 63 | 131 | 1.0 | 2.0 | 0.00 | 0.01 | 0.01 | 33 | 1008.1 |
| 20260507192219 | 64 | 128 | 2.0 | 4.0 | 0.00 | 0.01 | 0.01 | 31 | 1008.3 |
| 20260507191714 | 63 | 199 | 2.0 | 3.0 | 0.00 | 0.01 | 0.01 | 33 | 1008.4 |
| 20260507191212 | 65 | 150 | 3.0 | 4.0 | 0.00 | 0.01 | 0.01 | 31 | 1008.4 |
| 20260507190709 | 66 | 161 | 2.0 | 3.0 | 0.00 | 0.01 | 0.01 | 31 | 1008.1 |
| 20260507190207 | 65 | 204 | 2.0 | 4.0 | 0.00 | 0.01 | 0.01 | 32 | 1008.1 |
| 20260507185705 | 66 | 190 | 2.0 | 3.0 | 0.00 | 0.01 | 0.01 | 32 | 1008.0 |
| 20260507185202 | 66 | 96 | 1.0 | 3.0 | 0.00 | 0.01 | 0.01 | 32 | 1008.1 |
| 20260507184659 | 65 | 92 | 1.0 | 2.0 | 0.00 | 0.01 | 0.01 | 34 | 1008.2 |
| 20260507184157 | 66 | 152 | 2.0 | 3.0 | 0.00 | 0.01 | 0.01 | 33 | 1008.3 |
| 20260507183653 | 65 | 155 | 2.0 | 4.0 | 0.00 | 0.01 | 0.01 | 36 | 1008.4 |
| 20260507183150 | 64 | 219 | 2.0 | 3.0 | 0.00 | 0.01 | 0.01 | 35 | 1008.5 |
| 20260507182648 | 63 | 81 | 1.0 | 4.0 | 0.00 | 0.01 | 0.01 | 37 | 1008.4 |
| 20260507182143 | 66 | 115 | 2.0 | 4.0 | 0.00 | 0.01 | 0.01 | 37 | 1008.4 |
| 20260507181640 | 66 | 72 | 1.0 | 2.0 | 0.00 | 0.01 | 0.01 | 36 | 1008.4 |
| 20260507181136 | 64 | 151 | 1.0 | 3.0 | 0.00 | 0.01 | 0.01 | 39 | 1008.3 |
| 20260507180632 | 64 | 175 | 1.0 | 4.0 | 0.00 | 0.01 | 0.01 | 43 | 1008.5 |
| 20260507180130 | 65 | 223 | 3.0 | 4.0 | 0.00 | 0.01 | 0.01 | 40 | 1008.5 |
| 20260507175625 | 64 | 71 | 2.0 | 3.0 | 0.00 | 0.01 | 0.01 | 41 | 1008.6 |
| 20260507175123 | 64 | 132 | 1.0 | 2.0 | 0.00 | 0.01 | 0.01 | 39 | 1008.6 |
| 20260507174620 | 64 | 178 | 3.0 | 8.0 | 0.00 | 0.01 | 0.01 | 39 | 1008.8 |
| 20260507174118 | 64 | 120 | 2.0 | 7.0 | 0.00 | 0.01 | 0.01 | 44 | 1008.7 |
| 20260507173615 | 63 | 117 | 5.0 | 9.0 | 0.00 | 0.01 | 0.01 | 41 | 1008.7 |
| 20260507173112 | 64 | 219 | 2.0 | 6.0 | 0.00 | 0.01 | 0.01 | 40 | 1008.6 |
| 20260507172607 | 64 | 175 | 2.0 | 4.0 | 0.00 | 0.01 | 0.01 | 38 | 1008.8 |
| 20260507172106 | 64 | 215 | 2.0 | 3.0 | 0.00 | 0.01 | 0.01 | 39 | 1008.9 |
| 20260507171600 | 64 | 207 | 3.0 | 3.0 | 0.00 | 0.01 | 0.01 | 41 | 1008.9 |
| 20260507171057 | 63 | 83 | 2.0 | 2.0 | 0.00 | 0.01 | 0.01 | 43 | 1008.9 |
| 20260507170554 | 63 | 221 | 2.0 | 3.0 | 0.00 | 0.01 | 0.01 | 43 | 1008.9 |
| 20260507170051 | 62 | 123 | 1.0 | 3.0 | 0.00 | 0.01 | 0.01 | 48 | 1008.9 |
| 20260507165547 | 63 | 178 | 0.0 | 3.0 | 0.00 | 0.01 | 0.01 | 45 | 1009.0 |
| 20260507165044 | 62 | 81 | 1.0 | 6.0 | 0.00 | 0.01 | 0.01 | 45 | 1009.2 |
| 20260507164540 | 63 | 81 | 1.0 | 3.0 | 0.00 | 0.01 | 0.01 | 43 | 1009.0 |
| 20260507164037 | 62 | 171 | 2.0 | 3.0 | 0.00 | 0.01 | 0.01 | 45 | 1009.1 |
| 20260507163534 | 62 | 138 | 2.0 | 2.0 | 0.00 | 0.01 | 0.01 | 46 | 1009.2 |
| 20260507163033 | 62 | 121 | 1.0 | 4.0 | 0.00 | 0.01 | 0.01 | 46 | 1009.1 |
| 20260507162532 | 63 | 189 | 3.0 | 4.0 | 0.00 | 0.01 | 0.01 | 45 | 1009.3 |
| 20260507162030 | 64 | 115 | 2.0 | 2.0 | 0.00 | 0.01 | 0.01 | 44 | 1009.0 |
| 20260507161526 | 64 | 161 | 2.0 | 6.0 | 0.00 | 0.01 | 0.01 | 44 | 1009.3 |
| 20260507161023 | 63 | 101 | 1.0 | 4.0 | 0.00 | 0.01 | 0.01 | 42 | 1009.4 |
| 20260507160519 | 64 | 115 | 1.0 | 6.0 | 0.00 | 0.01 | 0.01 | 40 | 1009.4 |
| 20260507160015 | 64 | 208 | 1.0 | 6.0 | 0.00 | 0.01 | 0.01 | 43 | 1009.6 |
| 20260507155510 | 63 | 178 | 2.0 | 6.0 | 0.00 | 0.01 | 0.01 | 43 | 1009.5 |
| 20260507155008 | 63 | 203 | 3.0 | 3.0 | 0.00 | 0.01 | 0.01 | 45 | 1009.6 |
| 20260507154504 | 63 | 227 | 4.0 | 6.0 | 0.00 | 0.01 | 0.01 | 43 | 1009.6 |
| 20260507154002 | 62 | 110 | 1.0 | 3.0 | 0.00 | 0.01 | 0.01 | 47 | 1009.9 |
| 20260507153458 | 58 | 93 | 0.0 | 3.0 | 0.00 | 0.01 | 0.01 | 60 | 1009.6 |
| 20260507152955 | 56 | 160 | 1.0 | 3.0 | 0.00 | 0.01 | 0.01 | 69 | 1009.8 |
| 20260507152451 | 57 | 177 | 1.0 | 2.0 | 0.00 | 0.01 | 0.01 | 66 | 1009.9 |
| 20260507151947 | 58 | 163 | 2.0 | 4.0 | 0.00 | 0.01 | 0.01 | 62 | 1009.7 |
| 20260507151443 | 57 | 152 | 0.0 | 1.0 | 0.00 | 0.01 | 0.01 | 66 | 1009.9 |
| 20260507150940 | 57 | 185 | 0.0 | 1.0 | 0.00 | 0.01 | 0.01 | 63 | 1009.9 |
| 20260507150437 | 58 | 155 | 1.0 | 4.0 | 0.00 | 0.01 | 0.01 | 61 | 1010.0 |
| 20260507145934 | 59 | 122 | 2.0 | 3.0 | 0.00 | 0.01 | 0.01 | 63 | 1009.9 |
| 20260507145429 | 61 | 152 | 0.0 | 1.0 | 0.00 | 0.01 | 0.01 | 59 | 1010.0 |
| 20260507144926 | 61 | 238 | 2.0 | 7.0 | 0.00 | 0.01 | 0.01 | 50 | 1009.7 |
| 20260507144423 | 60 | 82 | 0.0 | 3.0 | 0.00 | 0.01 | 0.01 | 53 | 1010.1 |
| 20260507143921 | 59 | 149 | 0.0 | 2.0 | 0.00 | 0.01 | 0.01 | 55 | 1009.7 |
| 20260507143418 | 60 | 82 | 1.0 | 2.0 | 0.00 | 0.01 | 0.01 | 59 | 1010.1 |
| 20260507142914 | 59 | 91 | 0.0 | 1.0 | 0.00 | 0.01 | 0.01 | 52 | 1009.9 |
| 20260507142410 | 60 | 65 | 2.0 | 2.0 | 0.00 | 0.01 | 0.01 | 52 | 1010.0 |
| 20260507141907 | 60 | 167 | 0.0 | 1.0 | 0.00 | 0.01 | 0.01 | 53 | 1009.8 |
| 20260507141403 | 59 | 114 | 0.0 | 3.0 | 0.00 | 0.01 | 0.01 | 56 | 1010.0 |
| 20260507140900 | 59 | 228 | 3.0 | 3.0 | 0.00 | 0.01 | 0.01 | 57 | 1010.2 |
| 20260507140357 | 58 | 177 | 0.0 | 0.0 | 0.00 | 0.01 | 0.01 | 59 | 1010.2 |
| 20260507135855 | 58 | 41 | 1.0 | 1.0 | 0.00 | 0.01 | 0.01 | 58 | 1010.3 |
| 20260507135351 | 58 | 195 | 2.0 | 2.0 | 0.00 | 0.01 | 0.01 | 61 | 1010.3 |
| 20260507134849 | 57 | 123 | 0.0 | 1.0 | 0.00 | 0.01 | 0.01 | 59 | 1010.5 |
| 20260507134345 | 57 | 99 | 0.0 | 2.0 | 0.00 | 0.01 | 0.01 | 61 | 1010.4 |
| 20260507133841 | 57 | 83 | 0.0 | 2.0 | 0.00 | 0.01 | 0.01 | 61 | 1010.5 |
| 20260507133336 | 57 | 153 | 0.0 | 1.0 | 0.00 | 0.01 | 0.01 | 62 | 1010.4 |
| 20260507132835 | 57 | 194 | 1.0 | 2.0 | 0.00 | 0.01 | 0.01 | 62 | 1010.5 |
| 20260507132331 | 56 | 89 | 0.0 | 1.0 | 0.00 | 0.01 | 0.01 | 64 | 1010.6 |
| 20260507131829 | 57 | 156 | 0.0 | 1.0 | 0.00 | 0.01 | 0.01 | 65 | 1010.6 |
| 20260507131325 | 56 | 137 | 0.0 | 0.0 | 0.00 | 0.01 | 0.01 | 67 | 1010.7 |
| 20260507130822 | 56 | 144 | 0.0 | 0.0 | 0.00 | 0.01 | 0.01 | 68 | 1010.6 |
| 20260507130319 | 56 | 187 | 1.0 | 2.0 | 0.00 | 0.01 | 0.01 | 68 | 1010.8 |
| 20260507125818 | 56 | 203 | 1.0 | 2.0 | 0.00 | 0.01 | 0.01 | 68 | 1010.5 |
| 20260507125315 | 56 | 104 | 0.0 | 1.0 | 0.00 | 0.01 | 0.01 | 70 | 1010.6 |
| 20260507124813 | 55 | 152 | 0.0 | 1.0 | 0.00 | 0.01 | 0.01 | 72 | 1010.6 |
| 20260507124309 | 55 | 179 | 2.0 | 2.0 | 0.00 | 0.01 | 0.01 | 72 | 1010.6 |
| 20260507123807 | 55 | 117 | 0.0 | 1.0 | 0.00 | 0.01 | 0.01 | 71 | 1010.6 |
| 20260507123304 | 55 | 167 | 1.0 | 1.0 | 0.00 | 0.01 | 0.01 | 72 | 1010.9 |
| 20260507122800 | 55 | 94 | 0.0 | 1.0 | 0.00 | 0.01 | 0.01 | 75 | 1010.9 |
| 20260507122255 | 54 | 155 | 0.0 | 0.0 | 0.00 | 0.01 | 0.01 | 74 | 1010.7 |
| 20260507121752 | 53 | 147 | 0.0 | 2.0 | 0.00 | 0.01 | 0.01 | 77 | 1010.9 |
| 20260507121248 | 53 | 102 | 1.0 | 2.0 | 0.00 | 0.01 | 0.01 | 78 | 1010.7 |
| 20260507120744 | 53 | 179 | 0.0 | 2.0 | 0.00 | 0.01 | 0.01 | 79 | 1010.9 |
| 20260507120241 | 53 | 111 | 0.0 | 0.0 | 0.00 | 0.01 | 0.01 | 81 | 1010.7 |
| 20260507115737 | 53 | 113 | 0.0 | 0.0 | 0.00 | 0.01 | 0.01 | 84 | 1010.8 |
| 20260507115233 | 52 | 138 | 0.0 | 2.0 | 0.00 | 0.01 | 0.01 | 84 | 1010.7 |
| 20260507114729 | 50 | 131 | 0.0 | 0.0 | 0.00 | 0.01 | 0.01 | 88 | 1010.7 |
| 20260507114226 | 50 | 168 | 0.0 | 1.0 | 0.00 | 0.01 | 0.01 | 87 | 1010.8 |
| 20260507113724 | 50 | 125 | 0.0 | 0.0 | 0.00 | 0.01 | 0.01 | 87 | 1010.6 |
| 20260507113220 | 50 | 116 | 0.0 | 0.0 | 0.00 | 0.01 | 0.01 | 86 | 1010.5 |
| 20260507112718 | 50 | 120 | 0.0 | 0.0 | 0.00 | 0.01 | 0.01 | 86 | 1010.4 |
| 20260507112215 | 50 | 149 | 0.0 | 0.0 | 0.00 | 0.01 | 0.01 | 85 | 1010.8 |
| 20260507111712 | 50 | 149 | 0.0 | 0.0 | 0.00 | 0.01 | 0.01 | 87 | 1010.6 |
| 20260507111209 | 49 | 149 | 0.0 | 0.0 | 0.00 | 0.01 | 0.01 | 87 | 1010.6 |
| 20260507110705 | 49 | 149 | 0.0 | 0.0 | 0.00 | 0.01 | 0.01 | 87 | 1010.8 |
| 20260507110202 | 49 | 149 | 0.0 | 0.0 | 0.00 | 0.01 | 0.01 | 87 | 1010.9 |
| 20260507105659 | 49 | 149 | 0.0 | 0.0 | 0.00 | 0.01 | 0.01 | 88 | 1010.8 |
| 20260507105154 | 49 | 149 | 0.0 | 0.0 | 0.00 | 0.01 | 0.01 | 88 | 1010.9 |
| 20260507104652 | 48 | 149 | 0.0 | 0.0 | 0.00 | 0.01 | 0.01 | 89 | 1010.7 |
| 20260507104148 | 48 | 149 | 0.0 | 0.0 | 0.00 | 0.01 | 0.01 | 89 | 1010.8 |
| 20260507103644 | 48 | 149 | 0.0 | 0.0 | 0.00 | 0.01 | 0.01 | 90 | 1010.7 |
| 20260507103141 | 48 | 149 | 0.0 | 0.0 | 0.00 | 0.01 | 0.01 | 89 | 1010.9 |
| 20260507102637 | 48 | 149 | 0.0 | 0.0 | 0.00 | 0.01 | 0.01 | 89 | 1011.4 |
| 20260507102134 | 48 | 149 | 0.0 | 0.0 | 0.00 | 0.01 | 0.01 | 89 | 1010.8 |
| 20260507101630 | 48 | 149 | 0.0 | 0.0 | 0.00 | 0.01 | 0.01 | 89 | 1011.0 |
| 20260507101126 | 48 | 149 | 0.0 | 0.0 | 0.00 | 0.01 | 0.01 | 89 | 1010.9 |
| 20260507100623 | 48 | 149 | 0.0 | 0.0 | 0.00 | 0.01 | 0.01 | 89 | 1010.9 |
| 20260507100121 | 48 | 149 | 0.0 | 0.0 | 0.00 | 0.01 | 0.01 | 88 | 1010.6 |
| 20260507095619 | 48 | 149 | 0.0 | 0.0 | 0.00 | 0.01 | 0.01 | 88 | 1010.7 |
| 20260507095115 | 48 | 149 | 0.0 | 0.0 | 0.00 | 0.01 | 0.01 | 88 | 1010.7 |
| 20260507094611 | 48 | 149 | 0.0 | 0.0 | 0.00 | 0.01 | 0.01 | 89 | 1010.8 |
| 20260507094109 | 49 | 149 | 0.0 | 0.0 | 0.00 | 0.01 | 0.01 | 88 | 1010.7 |
| 20260507093606 | 49 | 109 | 0.0 | 0.0 | 0.00 | 0.01 | 0.01 | 88 | 1010.2 |
| 20260507093105 | 49 | 111 | 0.0 | 0.0 | 0.00 | 0.01 | 0.01 | 88 | 1010.2 |
| 20260507092601 | 49 | 144 | 0.0 | 0.0 | 0.00 | 0.01 | 0.01 | 88 | 1010.6 |
| 20260507092057 | 49 | 124 | 0.0 | 0.0 | 0.00 | 0.01 | 0.01 | 87 | 1010.6 |
| 20260507091554 | 49 | 135 | 0.0 | 1.0 | 0.00 | 0.01 | 0.01 | 88 | 1010.2 |
| 20260507091050 | 49 | 116 | 0.0 | 0.0 | 0.00 | 0.01 | 0.01 | 87 | 1010.2 |
| 20260507090546 | 49 | 113 | 0.0 | 0.0 | 0.00 | 0.01 | 0.01 | 88 | 1010.2 |
| 20260507090043 | 49 | 128 | 0.0 | 0.0 | 0.00 | 0.01 | 0.01 | 87 | 1010.2 |
| 20260507085540 | 50 | 105 | 0.0 | 0.0 | 0.00 | 0.01 | 0.01 | 88 | 1010.0 |
| 20260507085037 | 50 | 97 | 1.0 | 1.0 | 0.00 | 0.01 | 0.01 | 89 | 1010.1 |
| 20260507084534 | 50 | 192 | 0.0 | 2.0 | 0.00 | 0.01 | 0.01 | 90 | 1010.1 |
| 20260507084031 | 50 | 108 | 0.0 | 2.0 | 0.00 | 0.01 | 0.01 | 92 | 1010.1 |
| 20260507083527 | 50 | 121 | 0.0 | 1.0 | 0.00 | 0.01 | 0.01 | 94 | 1010.2 |
| 20260507083024 | 50 | 145 | 0.0 | 2.0 | 0.00 | 0.01 | 0.01 | 95 | 1010.5 |
| 20260507082520 | 50 | 128 | 0.0 | 0.0 | 0.00 | 0.01 | 0.01 | 95 | 1010.4 |
| 20260507082016 | 50 | 139 | 0.0 | 1.0 | 0.00 | 0.01 | 0.01 | 95 | 1010.3 |
| 20260507081513 | 50 | 118 | 0.0 | 0.0 | 0.00 | 0.01 | 0.01 | 95 | 1009.9 |
| 20260507081010 | 51 | 118 | 0.0 | 0.0 | 0.00 | 0.01 | 0.01 | 95 | 1010.0 |
| 20260507080506 | 51 | 118 | 0.0 | 0.0 | 0.00 | 0.01 | 0.01 | 95 | 1009.9 |
| 20260507080001 | 51 | 118 | 0.0 | 0.0 | 0.00 | 0.01 | 0.01 | 95 | 1010.0 |
| 20260507075458 | 51 | 118 | 0.0 | 0.0 | 0.00 | 0.01 | 0.01 | 95 | 1009.5 |
| 20260507074954 | 51 | 118 | 0.0 | 0.0 | 0.00 | 0.01 | 0.01 | 95 | 1009.5 |
| 20260507074451 | 51 | 118 | 0.0 | 0.0 | 0.00 | 0.01 | 0.01 | 95 | 1009.7 |
| 20260507073950 | 51 | 146 | 0.0 | 0.0 | 0.00 | 0.01 | 0.01 | 95 | 1009.7 |
| 20260507073445 | 51 | 144 | 0.0 | 0.0 | 0.00 | 0.01 | 0.01 | 96 | 1010.0 |
| 20260507072942 | 51 | 132 | 0.0 | 0.0 | 0.00 | 0.01 | 0.01 | 96 | 1009.9 |
| 20260507072440 | 51 | 178 | 0.0 | 0.0 | 0.00 | 0.01 | 0.01 | 96 | 1009.7 |
| 20260507071937 | 51 | 169 | 0.0 | 0.0 | 0.00 | 0.01 | 0.01 | 96 | 1009.7 |
| 20260507071434 | 51 | 169 | 0.0 | 0.0 | 0.00 | 0.01 | 0.01 | 96 | 1009.5 |
| 20260507070930 | 51 | 169 | 0.0 | 0.0 | 0.00 | 0.01 | 0.01 | 96 | 1009.3 |
| 20260507070428 | 51 | 169 | 0.0 | 0.0 | 0.00 | 0.01 | 0.01 | 96 | 1009.4 |
| 20260507065924 | 52 | 169 | 0.0 | 0.0 | 0.00 | 0.01 | 0.01 | 96 | 1009.3 |
| 20260507065421 | 52 | 169 | 0.0 | 0.0 | 0.00 | 0.01 | 0.01 | 96 | 1009.4 |
| 20260507064918 | 52 | 169 | 0.0 | 0.0 | 0.00 | 0.01 | 0.01 | 96 | 1009.3 |
| 20260507064417 | 52 | 168 | 0.0 | 0.0 | 0.00 | 0.01 | 0.01 | 96 | 1009.2 |
| 20260507063914 | 52 | 169 | 0.0 | 0.0 | 0.00 | 0.01 | 0.01 | 96 | 1009.5 |
| 20260507063411 | 52 | 169 | 0.0 | 0.0 | 0.00 | 0.01 | 0.01 | 96 | 1009.4 |
| 20260507062908 | 52 | 169 | 0.0 | 0.0 | 0.00 | 0.01 | 0.01 | 96 | 1009.2 |
| 20260507062405 | 52 | 169 | 0.0 | 0.0 | 0.00 | 0.01 | 0.01 | 96 | 1009.6 |
| 20260507061902 | 52 | 169 | 0.0 | 0.0 | 0.00 | 0.01 | 0.01 | 96 | 1009.2 |
| 20260507061400 | 52 | 169 | 0.0 | 0.0 | 0.00 | 0.01 | 0.01 | 96 | 1008.9 |
| 20260507060859 | 53 | 169 | 0.0 | 0.0 | 0.00 | 0.01 | 0.01 | 96 | 1009.0 |
| 20260507060355 | 53 | 169 | 0.0 | 0.0 | 0.00 | 0.01 | 0.01 | 96 | 1009.3 |
| 20260507055852 | 53 | 169 | 0.0 | 0.0 | 0.00 | 0.01 | 0.01 | 96 | 1009.3 |
| 20260507055352 | 53 | 169 | 0.0 | 1.0 | 0.00 | 0.01 | 0.01 | 96 | 1009.3 |
| 20260507054850 | 53 | 175 | 0.0 | 1.0 | 0.00 | 0.01 | 0.01 | 96 | 1009.2 |
| 20260507054345 | 53 | 142 | 0.0 | 1.0 | 0.00 | 0.01 | 0.01 | 96 | 1008.7 |
| 20260507053843 | 53 | 108 | 0.0 | 2.0 | 0.00 | 0.01 | 0.01 | 96 | 1008.7 |
| 20260507053341 | 53 | 145 | 0.0 | 0.0 | 0.00 | 0.01 | 0.01 | 97 | 1008.4 |
| 20260507052840 | 53 | 145 | 0.0 | 0.0 | 0.00 | 0.01 | 0.01 | 97 | 1008.8 |
| 20260507052336 | 53 | 165 | 0.0 | 1.0 | 0.00 | 0.01 | 0.01 | 97 | 1009.0 |
| 20260507051833 | 53 | 176 | 1.0 | 1.0 | 0.00 | 0.01 | 0.01 | 97 | 1008.7 |
| 20260507051331 | 53 | 162 | 0.0 | 1.0 | 0.00 | 0.01 | 0.01 | 97 | 1008.5 |
| 20260507050827 | 53 | 170 | 1.0 | 2.0 | 0.00 | 0.01 | 0.01 | 97 | 1008.5 |
| 20260507050324 | 53 | 125 | 0.0 | 1.0 | 0.00 | 0.01 | 0.01 | 97 | 1008.4 |
| 20260507045821 | 54 | 167 | 0.0 | 1.0 | 0.00 | 0.01 | 0.01 | 97 | 1008.9 |
| 20260507045317 | 54 | 134 | 0.0 | 0.0 | 0.00 | 0.01 | 0.01 | 98 | 1008.8 |
| 20260507044815 | 54 | 171 | 1.0 | 1.0 | 0.00 | 0.01 | 0.01 | 98 | 1008.7 |
| 20260507044311 | 54 | 177 | 0.0 | 1.0 | 0.00 | 0.01 | 0.01 | 98 | 1008.5 |
| 20260507043807 | 54 | 129 | 0.0 | 2.0 | 0.00 | 0.01 | 0.01 | 98 | 1008.2 |
| 20260507043304 | 54 | 182 | 1.0 | 2.0 | 0.00 | 0.01 | 0.01 | 98 | 1008.2 |
| 20260507042800 | 54 | 202 | 2.0 | 2.0 | 0.07 | 0.01 | 0.01 | 98 | 1008.1 |
| 20260507042255 | 54 | 132 | 0.0 | 1.0 | 0.07 | 0.01 | 0.01 | 98 | 1007.9 |
| 20260507041753 | 54 | 173 | 1.0 | 3.0 | 0.00 | 0.00 | 0.00 | 98 | 1008.3 |
| 20260507041249 | 55 | 198 | 1.0 | 3.0 | 0.00 | 0.00 | 0.00 | 98 | 1008.1 |
| 20260507040746 | 55 | 154 | 1.0 | 2.0 | 0.00 | 0.00 | 0.00 | 98 | 1008.1 |
| 20260507040242 | 55 | 213 | 2.0 | 2.0 | 0.00 | 0.00 | 0.00 | 98 | 1008.0 |
| 20260507035739 | 55 | 181 | 0.0 | 1.0 | 0.00 | 0.23 | 0.23 | 99 | 1008.2 |
| 20260507035234 | 55 | 196 | 2.0 | 2.0 | 0.00 | 0.23 | 0.23 | 99 | 1008.4 |
| 20260507034732 | 55 | 193 | 0.0 | 0.0 | 0.00 | 0.23 | 0.23 | 99 | 1008.2 |
| 20260507034228 | 55 | 193 | 0.0 | 0.0 | 0.00 | 0.23 | 0.23 | 99 | 1008.5 |
| 20260507033727 | 55 | 193 | 0.0 | 1.0 | 0.00 | 0.23 | 0.23 | 99 | 1008.3 |
| 20260507033224 | 55 | 193 | 0.0 | 1.0 | 0.05 | 0.23 | 0.23 | 98 | 1008.2 |
| 20260507032722 | 55 | 203 | 2.0 | 2.0 | 0.05 | 0.23 | 0.23 | 98 | 1008.0 |
| 20260507032217 | 54 | 151 | 0.0 | 0.0 | 0.00 | 0.22 | 0.22 | 98 | 1008.2 |
| 20260507031714 | 54 | 134 | 0.0 | 1.0 | 0.00 | 0.22 | 0.22 | 98 | 1007.9 |
| 20260507031211 | 54 | 233 | 2.0 | 2.0 | 0.00 | 0.22 | 0.22 | 98 | 1007.7 |
| 20260507030708 | 54 | 169 | 0.0 | 2.0 | 0.00 | 0.22 | 0.22 | 98 | 1007.7 |
| 20260507030206 | 54 | 211 | 3.0 | 3.0 | 0.00 | 0.22 | 0.22 | 98 | 1007.7 |
| 20260507025702 | 54 | 175 | 1.0 | 4.0 | 0.00 | 0.22 | 0.22 | 98 | 1007.8 |
| 20260507025159 | 54 | 175 | 0.0 | 2.0 | 0.00 | 0.22 | 0.22 | 98 | 1007.8 |
| 20260507024657 | 54 | 229 | 1.0 | 2.0 | 0.00 | 0.22 | 0.22 | 98 | 1008.0 |
| 20260507024154 | 54 | 184 | 1.0 | 7.0 | 0.00 | 0.22 | 0.22 | 98 | 1007.9 |
| 20260507023649 | 54 | 205 | 1.0 | 3.0 | 0.00 | 0.22 | 0.22 | 98 | 1008.1 |
| 20260507023147 | 54 | 191 | 2.0 | 4.0 | 0.00 | 0.22 | 0.22 | 98 | 1007.8 |
| 20260507022644 | 54 | 180 | 3.0 | 4.0 | 0.00 | 0.22 | 0.22 | 98 | 1008.0 |
| 20260507022140 | 54 | 153 | 1.0 | 4.0 | 0.00 | 0.22 | 0.22 | 98 | 1008.0 |
| 20260507021636 | 54 | 173 | 2.0 | 4.0 | 0.00 | 0.22 | 0.22 | 98 | 1008.2 |
| 20260507021132 | 54 | 221 | 3.0 | 4.0 | 0.00 | 0.22 | 0.22 | 98 | 1008.2 |
| 20260507020630 | 54 | 145 | 1.0 | 4.0 | 0.00 | 0.22 | 0.22 | 98 | 1008.4 |
| 20260507020126 | 54 | 205 | 2.0 | 4.0 | 0.00 | 0.22 | 0.22 | 98 | 1008.4 |
| 20260507015625 | 54 | 188 | 1.0 | 2.0 | 0.00 | 0.22 | 0.22 | 98 | 1008.4 |
| 20260507015122 | 54 | 169 | 2.0 | 4.0 | 0.00 | 0.22 | 0.22 | 98 | 1008.3 |
| 20260507014618 | 54 | 223 | 2.0 | 3.0 | 0.00 | 0.22 | 0.22 | 98 | 1008.3 |
| 20260507014114 | 54 | 144 | 0.0 | 6.0 | 0.00 | 0.22 | 0.22 | 98 | 1008.5 |
| 20260507013611 | 54 | 210 | 2.0 | 7.0 | 0.00 | 0.22 | 0.22 | 98 | 1008.5 |
| 20260507013108 | 54 | 223 | 4.0 | 7.0 | 0.00 | 0.22 | 0.22 | 98 | 1008.5 |
| 20260507012605 | 54 | 206 | 2.0 | 3.0 | 0.00 | 0.22 | 0.22 | 98 | 1008.6 |
| 20260507012101 | 54 | 239 | 4.0 | 8.0 | 0.00 | 0.22 | 0.22 | 98 | 1008.5 |
| 20260507011559 | 54 | 269 | 2.0 | 8.0 | 0.00 | 0.22 | 0.22 | 98 | 1008.6 |
| 20260507011055 | 54 | 183 | 6.0 | 8.0 | 0.00 | 0.22 | 0.22 | 98 | 1008.6 |
| 20260507010550 | 54 | 196 | 2.0 | 6.0 | 0.00 | 0.22 | 0.22 | 98 | 1008.6 |
| 20260507010046 | 54 | 245 | 3.0 | 9.0 | 0.00 | 0.22 | 0.22 | 98 | 1008.5 |
| 20260507005544 | 54 | 237 | 2.0 | 8.0 | 0.00 | 0.22 | 0.22 | 98 | 1008.7 |
| 20260507005040 | 54 | 227 | 4.0 | 7.0 | 0.00 | 0.22 | 0.22 | 98 | 1008.6 |
| 20260507004537 | 53 | 135 | 2.0 | 7.0 | 0.00 | 0.22 | 0.22 | 98 | 1008.6 |
| 20260507004035 | 53 | 205 | 3.0 | 8.0 | 0.07 | 0.22 | 0.22 | 98 | 1008.7 |
| 20260507003530 | 53 | 249 | 4.0 | 4.0 | 0.07 | 0.22 | 0.22 | 97 | 1008.6 |
| 20260507003025 | 53 | 236 | 4.0 | 7.0 | 0.00 | 0.21 | 0.21 | 97 | 1008.7 |
| 20260507002522 | 53 | 139 | 1.0 | 9.0 | 0.00 | 0.21 | 0.21 | 97 | 1008.8 |
| 20260507002018 | 53 | 176 | 3.0 | 8.0 | 0.00 | 0.21 | 0.21 | 97 | 1008.8 |
| 20260507001514 | 53 | 238 | 6.0 | 8.0 | 0.00 | 0.21 | 0.21 | 97 | 1008.7 |
| 20260507001013 | 53 | 227 | 3.0 | 3.0 | 0.00 | 0.21 | 0.21 | 97 | 1008.8 |
| 20260507000508 | 53 | 240 | 2.0 | 8.0 | 0.00 | 0.21 | 0.21 | 97 | 1008.8 |
| 20260507000004 | 53 | 168 | 3.0 | 11.0 | 0.00 | 0.21 | 0.21 | 97 | 1009.0 |
| 20260506235501 | 53 | 173 | 0.0 | 4.0 | 0.00 | 0.21 | 0.21 | 97 | 1008.9 |
| 20260506234957 | 53 | 182 | 3.0 | 7.0 | 0.00 | 0.21 | 0.21 | 97 | 1009.0 |